Weather observations for the past three days for
Visalia, Visalia Municipal Airport
Imperial (Metric)
Date Time (pdt) Wind (mph) Vis. (mi.) Weather Sky Cond. Temperature (ºF) Relative Humidity Wind Chill (°F) Heat Index (°F) Pressure Precipitation (in)
Air Dwpt 6 hour altimeter (in) sea level (mb) 1 hr 3 hr 6 hr
Max. Min.
18 13:56 W 9 10.00 Fair CLR 93 55.9 29% 91 29.95 1014.0
18 12:56 NW 8 10.00 Fair CLR 91 54 28% 89 29.97 1014.6
18 11:56 W 7 5.00 Fair with Haze CLR 87.1 57.9 37% 86 29.97 1014.7
18 10:56 W 7 10.00 Fair CLR 84 57.9 84 64 41% 83 29.98 1014.9
18 09:56 W 6 10.00 Fair CLR 77 59 54% 79 29.98 1014.8
18 08:56 Vrbl 5 10.00 Fair CLR 75.9 57.9 54% 78 29.98 1014.9
18 07:56 S 3 10.00 Fair CLR 71.1 57.9 63% 29.97 1014.7
18 06:56 SE 3 10.00 Fair CLR 64.9 60.1 84% 29.96 1014.2
18 05:56 E 3 10.00 Fair CLR 64.9 59 81% 29.94 1013.7
18 04:56 W 6 10.00 Fair CLR 66.9 57 79 64.9 71% 29.93 1013.4
18 03:56 SW 5 10.00 Fair CLR 66.9 57.9 73% 29.92 1013.1
18 02:56 Calm 10.00 Fair CLR 69.1 55.9 63% 29.93 1013.2
18 01:56 NW 7 10.00 Fair CLR 73 55 53% 29.92 1012.9
18 00:56 NW 8 10.00 Fair CLR 75 55 50% 78 29.92 1012.9
17 23:56 NW 10 10.00 Fair CLR 77 54 45% 78 29.92 1013.0
17 22:56 NW 12 10.00 Fair CLR 79 55.9 97 79 45% 80 29.92 1013.0
17 21:56 NW 7 10.00 Fair CLR 81 57.9 45% 81 29.92 1012.8
17 20:56 NW 8 10.00 Fair CLR 84 57.9 41% 83 29.9 1012.3
17 19:56 NW 9 10.00 Fair CLR 89.1 59 36% 88 29.89 1011.8
17 18:56 W 10 10.00 Fair CLR 93.9 59 31% 93 29.88 1011.6
17 17:56 NW 10 10.00 Fair CLR 96.1 59 29% 96 29.88 1011.7
17 16:56 NW 7 10.00 Fair CLR 96.1 55.9 96.1 78.1 26% 94 29.9 1012.1
17 15:56 W 10 10.00 Fair CLR 95 54 25% 93 29.92 1013.0
17 14:56 NW 10 10.00 Fair CLR 93.9 52 24% 91 29.94 1013.6
17 13:56 W 8 10.00 Fair CLR 91 55.9 31% 89 29.96 1014.4
17 12:56 W 9 10.00 Fair CLR 86 59 40% 85 29.98 1015.1
17 11:56 SW 7 10.00 Fair CLR 82 57.9 44% 82 29.99 1015.5
17 10:56 SW 6 10.00 Fair CLR 78.1 57.9 78.1 63 50% 79 30.01 1015.9
17 09:56 Vrbl 3 10.00 Fair CLR 73.9 57 56% 30.01 1015.8
17 08:56 W 3 10.00 Fair CLR 71.1 55.9 59% 30.01 1015.9
17 07:56 W 3 10.00 Fair CLR 68 55.9 65% 30.01 1015.9
17 06:56 W 3 10.00 Fair CLR 64 55 73% 30 1015.6
17 05:56 W 3 10.00 Fair CLR 64 55.9 75% 29.97 1014.8
17 04:56 NW 8 10.00 Fair CLR 66 55.9 82 66 70% 29.96 1014.4
17 03:56 NW 6 10.00 Fair CLR 66.9 57 71% 29.94 1013.8
17 02:56 NW 8 10.00 Fair CLR 69.1 57.9 68% 29.94 1013.5
17 01:56 NW 9 10.00 Fair CLR 72 59 64% 29.93 1013.2
17 00:56 NW 10 10.00 Fair CLR 75 62.1 64% 77 29.92 1013.0
16 23:56 NW 10 10.00 Fair CLR 79 64 60% 81 29.91 1012.5
16 22:56 NW 10 10.00 Fair CLR 82 63 100.9 82 53% 83 29.91 1012.5
16 21:56 NW 12 10.00 Fair CLR 84 66 55% 86 29.89 1011.9
16 20:56 NW 9 10.00 Fair CLR 87.1 66.9 51% 90 29.88 1011.5
16 19:56 W 8 10.00 Fair CLR 93.9 66 40% 97 29.86 1011.1
16 18:56 N 7 10.00 Fair CLR 99 60.1 28% 99 29.85 1010.6
16 17:56 W 7 10.00 Fair CLR 100 60.1 27% 101 29.85 1010.5
16 16:56 W 5 10.00 Fair CLR 100 60.1 100.9 82.9 27% 101 29.87 1011.0
16 15:56 SW 6 10.00 Fair CLR 98.1 59 27% 98 29.89 1011.7
16 14:56 W 7 10.00 Fair CLR 97 61 30% 98 29.9 1012.3
16 13:56 Calm 10.00 Fair CLR 93 62.1 36% 94 29.93 1013.2
16 12:56 W 7 10.00 Fair CLR 91 60.1 35% 91 29.95 1013.9
16 11:56 W 6 10.00 Fair CLR 88 62.1 42% 88 29.96 1014.3
16 10:56 W 5 9.00 Fair CLR 82.9 61 82.9 69.1 48% 83 29.97 1014.7 0.02
16 09:56 Vrbl 3 10.00 Fair CLR 79 60.1 52% 80 29.97 1014.7
16 08:56 Calm 10.00 Fair CLR 75.9 59 56% 78 29.97 1014.6 0.02
16 07:56 W 5 10.00 Fair CLR 72 60.1 66% 29.96 1014.3
16 06:56 W 7 10.00 Fair CLR 69.1 60.1 73% 29.95 1013.9
16 05:56 W 5 10.00 Fair CLR 69.1 61 76% 29.93 1013.3
16 04:56 NW 6 10.00 Fair CLR 70 62.1 82.9 70 76% 29.91 1012.7
16 03:56 W 5 10.00 Fair CLR 71.1 63 76% 29.9 1012.3
16 02:56 W 3 10.00 Fair CLR 73.9 64 71% 29.9 1012.1
16 01:56 NW 7 10.00 Fair CLR 77 63 62% 79 29.89 1012.0
16 00:56 NW 8 10.00 Fair CLR 79 63 58% 81 29.9 1012.3
15 23:56 NW 8 10.00 Fair CLR 81 64 57% 83 29.9 1012.2
15 22:56 NW 8 10.00 Fair CLR 82.9 64 102 82.9 53% 84 29.89 1011.8
15 21:56 NW 3 10.00 Fair CLR 86 64.9 49% 88 29.88 1011.6
15 20:56 NW 8 10.00 Fair CLR 90 64 42% 91 29.86 1011.0
15 19:56 N 6 10.00 Fair CLR 96.1 57 27% 95 29.85 1010.5
15 18:56 N 8 10.00 Fair CLR 99 57.9 26% 98 29.85 1010.4
15 17:56 NW 8 10.00 Fair CLR 100 57 24% 99 29.85 1010.6
15 16:56 W 8 10.00 Fair CLR 100 57 102 84 24% 99 29.87 1011.1
15 15:56 W 9 10.00 Fair CLR 100 55 22% 98 29.89 1011.8
15 14:56 W 8 10.00 Fair CLR 98.1 55 24% 96 29.92 1012.7
Date Time (pdt) Wind (mph) Vis. (mi.) Weather Sky Cond. Air Dwpt Max. Min. Relative Humidity Wind Chill (°F) Heat Index (°F) altimeter (in) sea level (mb) 1 hr 3 hr 6 hr
6 hour
Temperature (ºF) Pressure Precipitation (in)